This demonstration page uses our WeatherBlox Daily Observations layout. Learn more.

Left ArrowRight Arrow

39.51506, -84.39828

Hourly Observations for May 24, 2018

Temp ( °F °C ) Dew Point ( °F °C ) Humidity (%) Winds ( mph kmh ) Pressure ( in mb ) Visibility ( mi km ) Precip ( " mm )
12:15 am 00:15 Clear 61 16.3 57 13.8 85 85 N N/A 30.21 1023 10 16 N/A
12:35 am 00:35 Clear 60 15.6 57 13.8 89 89 N 3 6 30.21 1023 10 16 N/A
12:55 am 00:55 Clear 59 15.2 56 13.4 89 89 N N/A 30.21 1023 10 16 N/A
1:15 am 01:15 Clear 59 15 56 13.3 90 90 NNE 3 6 30.21 1023 10 16 N/A
1:35 am 01:35 Clear 59 14.8 56 13.5 92 92 NNE 3 6 30.21 1023 10 16 N/A
1:55 am 01:55 Clear 59 14.9 56 13.2 90 90 NNE 3 6 30.21 1023 10 16 N/A
2:15 am 02:15 Clear 58 14.5 55 13 91 91 NNE 3 6 30.21 1023 10 16 N/A
2:35 am 02:35 Clear 57 13.8 55 12.5 92 92 N 5 7 30.21 1023 10 16 N/A
2:55 am 02:55 Clear 56 13.6 55 12.6 94 94 N 3 6 30.21 1023 10 16 N/A
3:15 am 03:15 Clear 57 14 55 12.5 91 91 N 3 6 30.21 1023 10 16 N/A
3:35 am 03:35 Clear 55 13 54 12.1 94 94 N 3 6 30.18 1022 10 16 N/A
3:55 am 03:55 Clear 56 13.4 55 12.5 94 94 N N/A 30.18 1022 10 16 N/A
4:15 am 04:15 Clear 55 12.9 53 11.9 94 94 N 5 7 30.18 1022 10 16 N/A
4:35 am 04:35 Clear 55 12.6 53 11.6 94 94 N 3 6 30.21 1023 10 16 N/A
4:55 am 04:55 Clear 56 13.2 53 11.8 91 91 N 3 6 30.21 1023 10 16 N/A
5:15 am 05:15 Clear 55 12.5 53 11.6 94 94 N 5 7 30.18 1022 10 16 N/A
5:35 am 05:35 Clear 54 12.3 53 11.4 94 94 N 3 6 30.18 1022 10 16 N/A
5:55 am 05:55 Clear 54 12 52 11.3 96 96 N 3 6 30.21 1023 10 16 N/A
6:15 am 06:15 Clear 54 12 52 11.1 94 94 NNE 3 6 30.21 1023 10 16 N/A
6:35 am 06:35 Sunny 55 13 53 11.7 92 92 NNE 3 6 30.21 1023 10 16 N/A
6:55 am 06:55 Sunny 55 12.8 53 11.6 92 92 N 3 6 30.21 1023 10 16 N/A
7:15 am 07:15 Sunny 56 13.4 54 12 91 91 N N/A 30.21 1023 10 16 N/A
7:35 am 07:35 Sunny 58 14.7 55 13 90 90 N N/A 30.21 1023 10 16 N/A
7:55 am 07:55 Sunny 60 15.8 56 13.2 85 85 N N/A 30.24 1024 10 16 N/A
8:15 am 08:15 Sunny 62 16.9 56 13.3 79 79 N N/A 30.24 1024 10 16 N/A
8:35 am 08:35 Sunny 65 18.1 58 14.3 79 79 N N/A 30.21 1023 10 16 N/A
8:55 am 08:55 Sunny 66 18.8 56 13.4 71 71 NE 5 7 30.21 1023 10 16 N/A
9:15 am 09:15 Sunny 67 19.4 56 13.5 69 69 NE 6 9 30.21 1023 10 16 N/A
9:35 am 09:35 Sunny 69 20.4 56 13.5 65 65 NE 6 9 30.21 1023 10 16 N/A
9:55 am 09:55 Sunny 70 21.2 57 13.7 62 62 NNE 6 9 30.21 1023 10 16 N/A
10:15 am 10:15 Sunny 72 22 57 13.9 60 60 NNE 5 7 30.21 1023 10 16 N/A
10:35 am 10:35 Sunny 73 22.9 57 13.7 56 56 NNE 7 11 30.21 1023 10 16 N/A
10:55 am 10:55 Sunny 75 24 56 13.2 51 51 ENE 8 13 30.21 1023 10 16 N/A
11:15 am 11:15 Sunny 76 24.4 55 13 49 49 E 8 13 30.21 1023 10 16 N/A
11:35 am 11:35 Sunny 76 24.6 56 13.2 49 49 E 9 15 30.18 1022 10 16 N/A
11:55 am 11:55 Sunny 76 24.6 54 12.1 46 46 ENE 7 11 30.18 1022 10 16 N/A
12:15 pm 12:15 Sunny 77 25.2 55 13 47 47 E 10 17 30.18 1022 10 16 N/A
12:35 pm 12:35 Sunny 77 25.2 55 12.7 46 46 ENE 12 19 30.18 1022 10 16 N/A
12:55 pm 12:55 Sunny 78 25.5 54 12 43 43 ENE 9 15 30.18 1022 10 16 N/A
1:15 pm 13:15 Sunny 78 25.7 56 13.1 46 46 E 5 7 30.18 1022 10 16 N/A
1:35 pm 13:35 Sunny 79 25.9 55 13 45 45 E 9 15 30.15 1021 10 16 N/A
1:55 pm 13:55 Sunny 78 25.8 55 12.5 44 44 NE 7 11 30.15 1021 10 16 N/A
2:15 pm 14:15 Sunny 80 26.4 55 12.7 43 43 E 8 13 30.15 1021 10 16 N/A
2:35 pm 14:35 Sunny 80 26.6 53 11.6 39 39 ESE 10 17 30.15 1021 10 16 N/A
2:55 pm 14:55 Sunny 80 26.9 53 11.7 39 39 E 7 11 30.12 1020 10 16 N/A
3:15 pm 15:15 Sunny 81 27.2 55 12.5 40 40 ENE 10 17 30.12 1020 10 16 N/A
3:35 pm 15:35 Sunny 81 27.3 56 13.2 42 42 NE 8 13 30.12 1020 10 16 N/A
3:55 pm 15:55 Sunny 82 27.6 55 12.5 39 39 E 9 15 30.12 1020 10 16 N/A
4:15 pm 16:15 Sunny 82 27.8 55 12.9 40 40 E 5 7 30.12 1020 10 16 N/A
4:35 pm 16:35 Sunny 82 27.5 56 13.3 42 42 ENE 5 7 30.09 1019 10 16 N/A
4:55 pm 16:55 Sunny 82 27.8 56 13.1 40 40 ESE 9 15 30.09 1019 10 16 N/A
5:15 pm 17:15 Sunny 82 28 55 12.7 39 39 E 9 15 30.09 1019 10 16 N/A
5:35 pm 17:35 Sunny 82 27.8 55 12.8 40 40 ENE 5 7 30.09 1019 10 16 N/A
5:55 pm 17:55 Sunny 82 28 54 12 37 37 NE 6 9 30.09 1019 10 16 N/A
6:15 pm 18:15 Sunny 81 27.4 55 13 41 41 ENE 7 11 30.06 1018 10 16 N/A
6:35 pm 18:35 Sunny 82 27.5 54 12 38 38 E 7 11 30.06 1018 10 16 N/A
6:55 pm 18:55 Sunny 81 27.4 55 12.7 40 40 ENE 5 7 30.06 1018 10 16 N/A
7:15 pm 19:15 Sunny 81 27.1 54 12.1 39 39 ENE 5 7 30.06 1018 10 16 N/A
7:35 pm 19:35 Sunny 79 26.1 57 14 47 47 ENE 6 9 30.06 1018 10 16 N/A
7:55 pm 19:55 Sunny 78 25.4 57 13.9 49 49 E 3 6 30.06 1018 10 16 N/A
8:15 pm 20:15 Hazy 76 24.2 58 14.5 55 55 ENE 6 9 30.06 1018 3 4 N/A
8:35 pm 20:35 Sunny 74 23.5 58 14.5 57 57 NE 3 6 30.06 1018 10 16 N/A
8:55 pm 20:55 Clear 70 21.3 60 15.6 70 70 N N/A 30.06 1018 10 16 N/A
9:15 pm 21:15 Clear 67 19.7 60 15.5 77 77 N N/A 30.06 1018 10 16 N/A
9:35 pm 21:35 Clear 65 18.6 58 14.5 77 77 N 3 6 30.06 1018 10 16 N/A
9:55 pm 21:55 Clear 65 18.3 59 15 81 81 N N/A 30.06 1018 10 16 N/A
10:15 pm 22:15 Clear 64 17.9 58 14.2 79 79 N N/A 30.06 1018 10 16 N/A
10:35 pm 22:35 Clear 62 16.6 58 14.4 87 87 N N/A 30.06 1018 10 16 N/A
10:55 pm 22:55 Clear 62 16.4 57 14.1 86 86 N N/A 30.06 1018 10 16 N/A
11:15 pm 23:15 Clear 62 16.7 56 13.6 82 82 N 3 6 30.06 1018 5 8 N/A
11:35 pm 23:35 Clear 60 15.7 56 13.6 87 87 N N/A 30.09 1019 10 16 N/A
11:55 pm 23:55 Clear 60 15.6 56 13.6 88 88 N N/A 30.09 1019 10 16 N/A

Powered by AerisWeather